| time (UTC) | temp F | wind direction | speed MPH | gust MPH | rain 1hr in | rain 24hr in | rain mn in | humidity % | barometer mb |
| 20260905085504 | 70 | 63 | 1.0 | 3.0 | 0.00 | 0.45 | 0.00 | 92 | 1014.2 |
| 20260905085007 | 70 | 76 | 0.0 | 2.0 | 0.00 | 0.45 | 0.00 | 92 | 1014.3 |
| 20260905084526 | 70 | 134 | 0.0 | 2.0 | 0.00 | 0.45 | 0.00 | 92 | 1014.3 |
| 20260905084005 | 70 | 27 | 0.0 | 2.0 | 0.00 | 0.46 | 0.00 | 92 | 1014.3 |
| 20260905083513 | 70 | 171 | 0.0 | 2.0 | 0.00 | 0.46 | 0.00 | 92 | 1014.2 |
| 20260905083022 | 70 | 126 | 0.0 | 2.0 | 0.00 | 0.46 | 0.00 | 92 | 1014.2 |
| 20260905082504 | 70 | 77 | 0.0 | 2.0 | 0.00 | 0.46 | 0.00 | 92 | 1014.1 |
| 20260905082013 | 70 | 80 | 0.0 | 2.0 | 0.00 | 0.46 | 0.00 | 92 | 1014.1 |
| 20260905081525 | 70 | 68 | 0.0 | 2.0 | 0.00 | 0.46 | 0.00 | 92 | 1014.0 |
| 20260905081008 | 70 | 84 | 0.0 | 2.0 | 0.00 | 0.46 | 0.00 | 92 | 1013.9 |
| 20260905080512 | 71 | 117 | 0.0 | 2.0 | 0.00 | 0.46 | 0.00 | 92 | 1013.9 |
| 20260905080028 | 71 | 81 | 0.0 | 4.0 | 0.00 | 0.46 | 0.00 | 92 | 1013.9 |
| 20260905075507 | 71 | 97 | 0.0 | 4.0 | 0.00 | 0.47 | 0.00 | 92 | 1013.8 |
| 20260905075013 | 71 | 60 | 2.0 | 4.0 | 0.00 | 0.47 | 0.00 | 92 | 1013.9 |
| 20260905074537 | 71 | 82 | 1.0 | 2.0 | 0.00 | 0.47 | 0.00 | 91 | 1013.8 |
| 20260905074010 | 71 | 62 | 1.0 | 2.0 | 0.00 | 0.47 | 0.00 | 91 | 1013.9 |
| 20260905073512 | 71 | 82 | 0.0 | 2.0 | 0.00 | 0.47 | 0.00 | 91 | 1014.1 |
| 20260905073037 | 71 | 71 | 0.0 | 2.0 | 0.00 | 0.47 | 0.00 | 91 | 1014.1 |
| 20260905072509 | 71 | 88 | 0.0 | 2.0 | 0.00 | 0.47 | 0.00 | 91 | 1014.1 |
| 20260905072011 | 71 | 32 | 0.0 | 2.0 | 0.00 | 0.47 | 0.00 | 91 | 1014.0 |
| 20260905071527 | 71 | 345 | 0.0 | 2.0 | 0.00 | 0.47 | 0.00 | 91 | 1013.9 |
| 20260905071009 | 71 | 348 | 0.0 | 2.0 | 0.00 | 0.47 | 0.00 | 91 | 1013.9 |
| 20260905070503 | 71 | 54 | 0.0 | 2.0 | 0.00 | 0.47 | 0.00 | 90 | 1013.9 |
| 20260905070013 | 71 | 56 | 0.0 | 2.0 | 0.00 | 0.47 | 0.00 | 90 | 1013.8 |
| 20260905065513 | 71 | 18 | 0.0 | 2.0 | 0.00 | 0.47 | 0.00 | 90 | 1013.8 |
| 20260905065002 | 72 | 19 | 0.0 | 2.0 | 0.00 | 0.47 | 0.00 | 90 | 1013.9 |
| 20260905064516 | 72 | 69 | 0.0 | 2.0 | 0.00 | 0.47 | 0.00 | 90 | 1014.1 |
| 20260905064013 | 72 | 52 | 0.0 | 3.0 | 0.00 | 0.47 | 0.00 | 90 | 1014.0 |
| 20260905063505 | 72 | 74 | 1.0 | 3.0 | 0.00 | 0.47 | 0.00 | 90 | 1013.9 |
| 20260905063014 | 72 | 59 | 1.0 | 3.0 | 0.00 | 0.47 | 0.00 | 90 | 1013.9 |
| 20260905062500 | 72 | 13 | 0.0 | 3.0 | 0.00 | 0.47 | 0.00 | 90 | 1014.1 |
| 20260905062003 | 72 | 121 | 1.0 | 3.0 | 0.00 | 0.47 | 0.00 | 89 | 1014.1 |
| 20260905061517 | 72 | 59 | 0.0 | 2.0 | 0.00 | 0.47 | 0.00 | 89 | 1014.1 |
| 20260905061001 | 72 | 140 | 0.0 | 3.0 | 0.00 | 0.47 | 0.00 | 89 | 1014.0 |
| 20260905060503 | 72 | 57 | 1.0 | 3.0 | 0.00 | 0.47 | 0.00 | 89 | 1014.0 |
| 20260905060017 | 72 | 76 | 1.0 | 2.0 | 0.00 | 0.47 | 0.00 | 89 | 1014.1 |
| 20260905055502 | 72 | 32 | 0.0 | 2.0 | 0.00 | 0.47 | 0.00 | 90 | 1014.0 |
| 20260905055004 | 72 | 32 | 0.0 | 2.0 | 0.00 | 0.47 | 0.00 | 90 | 1014.1 |
| 20260905054520 | 72 | 19 | 0.0 | 2.0 | 0.00 | 0.47 | 0.00 | 90 | 1014.0 |
| 20260905054000 | 72 | 300 | 0.0 | 3.0 | 0.00 | 0.47 | 0.00 | 90 | 1014.0 |
| 20260905053507 | 72 | 246 | 1.0 | 3.0 | 0.00 | 0.47 | 0.00 | 90 | 1014.0 |
| 20260905053025 | 72 | 254 | 1.0 | 3.0 | 0.00 | 0.47 | 0.00 | 90 | 1013.8 |
| 20260905052503 | 72 | 250 | 0.0 | 2.0 | 0.00 | 0.47 | 0.00 | 90 | 1013.9 |
| 20260905052003 | 72 | 240 | 1.0 | 2.0 | 0.00 | 0.47 | 0.00 | 89 | 1013.9 |
| 20260905051523 | 72 | 236 | 0.0 | 2.0 | 0.00 | 0.47 | 0.00 | 89 | 1014.1 |
| 20260905051003 | 72 | 244 | 0.0 | 2.0 | 0.00 | 0.47 | 0.00 | 89 | 1014.2 |
| 20260905050507 | 72 | 243 | 0.0 | 2.0 | 0.00 | 0.47 | 0.00 | 89 | 1014.3 |
| 20260905050031 | 73 | 241 | 0.0 | 2.0 | 0.00 | 0.47 | 0.00 | 88 | 1014.3 |
| 20260905045504 | 73 | 235 | 0.0 | 2.0 | 0.00 | 0.47 | 0.47 | 88 | 1014.3 |
| 20260905045004 | 73 | 130 | 0.0 | 2.0 | 0.00 | 0.47 | 0.47 | 88 | 1014.2 |
| 20260905044527 | 73 | 132 | 0.0 | 2.0 | 0.00 | 0.47 | 0.47 | 88 | 1014.3 |
| 20260905044002 | 73 | 77 | 0.0 | 1.0 | 0.00 | 0.47 | 0.47 | 88 | 1014.3 |
| 20260905043505 | 73 | 76 | 0.0 | 2.0 | 0.00 | 0.47 | 0.47 | 88 | 1014.4 |
| 20260905043030 | 73 | 74 | 0.0 | 3.0 | 0.00 | 0.47 | 0.47 | 88 | 1014.5 |
| 20260905042502 | 73 | 63 | 1.0 | 3.0 | 0.00 | 0.47 | 0.47 | 88 | 1014.5 |
| 20260905042008 | 73 | 44 | 2.0 | 5.0 | 0.00 | 0.47 | 0.47 | 88 | 1014.4 |
| 20260905041531 | 73 | 57 | 2.0 | 5.0 | 0.00 | 0.47 | 0.47 | 87 | 1014.4 |
| 20260905041006 | 73 | 57 | 2.0 | 3.0 | 0.00 | 0.47 | 0.47 | 87 | 1014.5 |
| 20260905040509 | 73 | 77 | 2.0 | 3.0 | 0.00 | 0.47 | 0.47 | 87 | 1014.4 |
| 20260905040030 | 73 | 65 | 2.0 | 3.0 | 0.00 | 0.47 | 0.47 | 87 | 1014.3 |
| 20260905035503 | 73 | 38 | 2.0 | 3.0 | 0.00 | 0.47 | 0.47 | 87 | 1014.2 |
| 20260905035008 | 74 | 59 | 0.0 | 2.0 | 0.00 | 0.47 | 0.47 | 87 | 1014.2 |
| 20260905034535 | 74 | 5 | 0.0 | 2.0 | 0.00 | 0.47 | 0.47 | 87 | 1014.3 |
| 20260905034004 | 74 | 19 | 0.0 | 2.0 | 0.00 | 0.47 | 0.47 | 87 | 1014.1 |
| 20260905033510 | 74 | 107 | 0.0 | 2.0 | 0.00 | 0.47 | 0.47 | 87 | 1014.0 |
| 20260905033010 | 74 | 275 | 0.0 | 2.0 | 0.00 | 0.47 | 0.47 | 87 | 1014.1 |
| 20260905032508 | 74 | 204 | 0.0 | 2.0 | 0.00 | 0.47 | 0.47 | 87 | 1014.0 |
| 20260905032009 | 74 | 178 | 0.0 | 2.0 | 0.00 | 0.47 | 0.47 | 87 | 1014.2 |
| 20260905031506 | 74 | 112 | 0.0 | 2.0 | 0.00 | 0.47 | 0.47 | 86 | 1014.3 |
| 20260905031007 | 74 | 123 | 1.0 | 2.0 | 0.00 | 0.47 | 0.47 | 86 | 1014.4 |
| 20260905030510 | 74 | 128 | 0.0 | 3.0 | 0.00 | 0.47 | 0.47 | 86 | 1014.5 |
| 20260905030009 | 74 | 96 | 1.0 | 3.0 | 0.00 | 0.47 | 0.47 | 86 | 1014.4 |
| 20260905025510 | 74 | 152 | 1.0 | 3.0 | 0.00 | 0.47 | 0.47 | 86 | 1014.4 |
| 20260905025014 | 74 | 135 | 1.0 | 2.0 | 0.00 | 0.47 | 0.47 | 86 | 1014.6 |
| 20260905024508 | 74 | 102 | 0.0 | 4.0 | 0.00 | 0.47 | 0.47 | 85 | 1014.4 |
| 20260905024007 | 74 | 107 | 1.0 | 4.0 | 0.00 | 0.47 | 0.47 | 85 | 1014.3 |
| 20260905023515 | 74 | 90 | 2.0 | 4.0 | 0.00 | 0.47 | 0.47 | 85 | 1014.5 |
| 20260905023031 | 75 | 77 | 2.0 | 5.0 | 0.00 | 0.47 | 0.47 | 84 | 1014.3 |
| 20260905022507 | 75 | 55 | 2.0 | 6.0 | 0.00 | 0.47 | 0.47 | 84 | 1014.4 |
| 20260905022016 | 75 | 40 | 2.0 | 6.0 | 0.00 | 0.47 | 0.47 | 84 | 1014.3 |
| 20260905021516 | 75 | 63 | 2.0 | 5.0 | 0.00 | 0.47 | 0.47 | 83 | 1014.2 |
| 20260905021009 | 75 | 51 | 2.0 | 5.0 | 0.00 | 0.47 | 0.47 | 83 | 1014.3 |
| 20260905020515 | 75 | 90 | 3.0 | 7.0 | 0.00 | 0.47 | 0.47 | 83 | 1014.2 |
| 20260905020022 | 76 | 42 | 3.0 | 7.0 | 0.00 | 0.47 | 0.47 | 82 | 1014.4 |
| 20260905015511 | 76 | 61 | 3.0 | 7.0 | 0.00 | 0.47 | 0.47 | 82 | 1014.4 |
| 20260905015017 | 76 | 55 | 4.0 | 7.0 | 0.00 | 0.47 | 0.47 | 82 | 1014.4 |
| 20260905014513 | 76 | 65 | 3.0 | 7.0 | 0.00 | 0.47 | 0.47 | 82 | 1014.4 |
| 20260905014012 | 76 | 55 | 3.0 | 5.0 | 0.00 | 0.47 | 0.47 | 82 | 1014.3 |
| 20260905013515 | 76 | 61 | 3.0 | 5.0 | 0.00 | 0.47 | 0.47 | 82 | 1014.3 |
| 20260905013014 | 76 | 68 | 3.0 | 4.0 | 0.00 | 0.47 | 0.47 | 82 | 1014.3 |
| 20260905012513 | 76 | 45 | 3.0 | 7.0 | 0.00 | 0.47 | 0.47 | 82 | 1014.3 |
| 20260905012018 | 76 | 70 | 3.0 | 7.0 | 0.00 | 0.47 | 0.47 | 82 | 1014.3 |
| 20260905011513 | 76 | 61 | 3.0 | 6.0 | 0.00 | 0.47 | 0.47 | 82 | 1014.1 |
| 20260905011012 | 76 | 57 | 3.0 | 5.0 | 0.00 | 0.47 | 0.47 | 82 | 1014.0 |
| 20260905010521 | 76 | 105 | 2.0 | 8.0 | 0.00 | 0.47 | 0.47 | 82 | 1014.1 |
| 20260905010018 | 76 | 59 | 4.0 | 8.0 | 0.00 | 0.47 | 0.47 | 82 | 1014.0 |
| 20260905005511 | 76 | 90 | 4.0 | 8.0 | 0.00 | 0.47 | 0.47 | 81 | 1014.1 |
| 20260905005016 | 76 | 30 | 3.0 | 8.0 | 0.00 | 0.47 | 0.47 | 81 | 1013.8 |
| 20260905004521 | 76 | 55 | 3.0 | 10.0 | 0.00 | 0.47 | 0.47 | 81 | 1013.6 |
| 20260905004014 | 77 | 83 | 5.0 | 10.0 | 0.00 | 0.47 | 0.47 | 81 | 1013.5 |
| 20260905003522 | 77 | 75 | 5.0 | 10.0 | 0.00 | 0.47 | 0.47 | 80 | 1013.5 |
| 20260905003023 | 77 | 61 | 6.0 | 10.0 | 0.00 | 0.47 | 0.47 | 80 | 1013.4 |
| 20260905002515 | 77 | 40 | 4.0 | 9.0 | 0.00 | 0.47 | 0.47 | 80 | 1013.4 |
| 20260905002003 | 78 | 73 | 7.0 | 9.0 | 0.00 | 0.47 | 0.47 | 79 | 1013.2 |
| 20260905001523 | 78 | 88 | 3.0 | 6.0 | 0.00 | 0.47 | 0.47 | 80 | 1013.1 |
| 20260905001015 | 78 | 41 | 4.0 | 8.0 | 0.00 | 0.47 | 0.47 | 79 | 1013.2 |
| 20260905000504 | 78 | 78 | 4.0 | 9.0 | 0.00 | 0.47 | 0.47 | 79 | 1013.1 |
| 20260905000026 | 79 | 82 | 5.0 | 9.0 | 0.00 | 0.47 | 0.47 | 78 | 1013.3 |
| 20260904235520 | 79 | 57 | 3.0 | 6.0 | 0.00 | 0.47 | 0.47 | 78 | 1013.2 |
| 20260904235006 | 79 | 47 | 3.0 | 6.0 | 0.00 | 0.47 | 0.47 | 78 | 1013.2 |
| 20260904234532 | 80 | 91 | 2.0 | 6.0 | 0.00 | 0.47 | 0.47 | 78 | 1013.2 |
| 20260904234016 | 80 | 65 | 4.0 | 8.0 | 0.00 | 0.47 | 0.47 | 77 | 1013.3 |
| 20260904233506 | 81 | 98 | 4.0 | 9.0 | 0.00 | 0.47 | 0.47 | 76 | 1013.1 |
| 20260904233027 | 82 | 43 | 3.0 | 10.0 | 0.00 | 0.47 | 0.47 | 74 | 1012.9 |
| 20260904232517 | 85 | 76 | 3.0 | 10.0 | 0.00 | 0.47 | 0.47 | 73 | 1012.7 |
| 20260904232010 | 85 | 348 | 1.0 | 2.0 | 0.00 | 0.47 | 0.47 | 74 | 1012.6 |
| 20260904231529 | 85 | 330 | 0.0 | 2.0 | 0.00 | 0.47 | 0.47 | 74 | 1012.5 |
| 20260904231018 | 85 | 332 | 0.0 | 2.0 | 0.00 | 0.47 | 0.47 | 73 | 1012.6 |
| 20260904230513 | 85 | 331 | 0.0 | 2.0 | 0.00 | 0.47 | 0.47 | 73 | 1012.7 |
| 20260904230032 | 85 | 340 | 0.0 | 2.0 | 0.00 | 0.47 | 0.47 | 73 | 1012.8 |
| 20260904225504 | 85 | 343 | 0.0 | 2.0 | 0.00 | 0.47 | 0.47 | 72 | 1012.9 |
| 20260904225010 | 85 | 326 | 1.0 | 3.0 | 0.00 | 0.47 | 0.47 | 72 | 1012.8 |
| 20260904224531 | 86 | 350 | 2.0 | 3.0 | 0.00 | 0.47 | 0.47 | 72 | 1012.8 |
| 20260904224007 | 86 | 315 | 1.0 | 3.0 | 0.00 | 0.47 | 0.47 | 71 | 1012.7 |
| 20260904223510 | 86 | 240 | 1.0 | 4.0 | 0.00 | 0.47 | 0.47 | 71 | 1012.8 |
| 20260904223034 | 86 | 258 | 2.0 | 4.0 | 0.00 | 0.47 | 0.47 | 71 | 1012.9 |
| 20260904222505 | 86 | 244 | 2.0 | 7.0 | 0.00 | 0.47 | 0.47 | 71 | 1012.8 |
| 20260904222009 | 86 | 262 | 2.0 | 9.0 | 0.00 | 0.47 | 0.47 | 70 | 1012.8 |
| 20260904221531 | 87 | 267 | 4.0 | 9.0 | 0.00 | 0.47 | 0.47 | 69 | 1012.9 |
| 20260904221006 | 87 | 271 | 3.0 | 9.0 | 0.00 | 0.47 | 0.47 | 68 | 1012.8 |
| 20260904220514 | 88 | 279 | 3.0 | 10.0 | 0.00 | 0.47 | 0.47 | 67 | 1012.8 |
| 20260904215508 | 88 | 279 | 2.0 | 10.0 | 0.00 | 0.47 | 0.47 | 67 | 1012.8 |
| 20260904215012 | 88 | 246 | 2.0 | 8.0 | 0.00 | 0.47 | 0.47 | 68 | 1012.8 |
| 20260904214507 | 88 | 260 | 2.0 | 10.0 | 0.00 | 0.47 | 0.47 | 67 | 1012.9 |
| 20260904214019 | 87 | 190 | 4.0 | 11.0 | 0.00 | 0.47 | 0.47 | 68 | 1012.9 |
| 20260904213517 | 87 | 262 | 3.0 | 14.0 | 0.00 | 0.47 | 0.47 | 68 | 1012.9 |
| 20260904213011 | 88 | 254 | 5.0 | 14.0 | 0.00 | 0.47 | 0.47 | 65 | 1012.9 |
| 20260904212522 | 89 | 248 | 3.0 | 10.0 | 0.00 | 0.47 | 0.47 | 65 | 1012.7 |
| 20260904212016 | 89 | 260 | 2.0 | 10.0 | 0.00 | 0.47 | 0.47 | 66 | 1012.7 |
| 20260904211510 | 88 | 240 | 4.0 | 10.0 | 0.00 | 0.47 | 0.47 | 66 | 1012.4 |
| 20260904211008 | 88 | 360 | 3.0 | 11.0 | 0.00 | 0.47 | 0.47 | 66 | 1012.4 |
| 20260904210516 | 88 | 182 | 5.0 | 14.0 | 0.00 | 0.47 | 0.47 | 65 | 1012.6 |
| 20260904210010 | 88 | 243 | 7.0 | 14.0 | 0.00 | 0.47 | 0.47 | 66 | 1012.3 |
| 20260904205512 | 88 | 145 | 4.0 | 16.0 | 0.00 | 0.47 | 0.47 | 65 | 1012.3 |
| 20260904205022 | 88 | 341 | 3.0 | 16.0 | 0.00 | 0.47 | 0.47 | 66 | 1012.3 |
| 20260904204511 | 87 | 223 | 4.0 | 11.0 | 0.00 | 0.47 | 0.47 | 68 | 1012.3 |
| 20260904204015 | 87 | 258 | 4.0 | 12.0 | 0.00 | 0.47 | 0.47 | 68 | 1012.3 |
| 20260904203519 | 87 | 248 | 5.0 | 12.0 | 0.00 | 0.47 | 0.47 | 67 | 1012.3 |
| 20260904203017 | 87 | 17 | 1.0 | 11.0 | 0.00 | 0.47 | 0.47 | 68 | 1012.4 |
| 20260904202513 | 87 | 200 | 2.0 | 17.0 | 0.00 | 0.47 | 0.47 | 68 | 1012.4 |
| 20260904202014 | 86 | 225 | 6.0 | 17.0 | 0.00 | 0.47 | 0.47 | 68 | 1012.4 |
| 20260904201515 | 86 | 250 | 5.0 | 12.0 | 0.00 | 0.47 | 0.47 | 69 | 1012.4 |
| 20260904201016 | 85 | 281 | 6.0 | 12.0 | 0.00 | 0.47 | 0.47 | 71 | 1012.3 |
| 20260904200515 | 84 | 228 | 5.0 | 11.0 | 0.00 | 0.47 | 0.47 | 71 | 1012.5 |
| 20260904200020 | 84 | 213 | 4.0 | 11.0 | 0.00 | 0.47 | 0.47 | 70 | 1012.6 |
| 20260904195517 | 84 | 249 | 4.0 | 11.0 | 0.00 | 0.47 | 0.47 | 70 | 1012.8 |
| 20260904195019 | 85 | 251 | 4.0 | 14.0 | 0.00 | 0.47 | 0.47 | 69 | 1012.8 |
| 20260904194541 | 86 | 27 | 3.0 | 14.0 | 0.00 | 0.47 | 0.47 | 68 | 1012.7 |
| 20260904194014 | 86 | 194 | 3.0 | 11.0 | 0.00 | 0.47 | 0.47 | 69 | 1012.8 |
| 20260904193517 | 85 | 187 | 6.0 | 14.0 | 0.00 | 0.47 | 0.47 | 69 | 1013.1 |
| 20260904193021 | 84 | 264 | 5.0 | 13.0 | 0.00 | 0.47 | 0.47 | 72 | 1013.3 |
| 20260904192516 | 82 | 201 | 3.0 | 12.0 | 0.00 | 0.47 | 0.47 | 74 | 1013.3 |
| 20260904192017 | 82 | 261 | 6.0 | 12.0 | 0.00 | 0.47 | 0.47 | 74 | 1013.4 |
| 20260904191536 | 82 | 184 | 4.0 | 15.0 | 0.00 | 0.47 | 0.47 | 74 | 1013.5 |
| 20260904191016 | 81 | 208 | 6.0 | 12.0 | 0.00 | 0.47 | 0.47 | 74 | 1013.4 |
| 20260904190516 | 81 | 265 | 4.0 | 11.0 | 0.00 | 0.47 | 0.47 | 75 | 1013.4 |
| 20260904190024 | 80 | 193 | 3.0 | 12.0 | 0.00 | 0.47 | 0.47 | 76 | 1013.4 |
| 20260904185517 | 80 | 192 | 4.0 | 12.0 | 0.00 | 0.47 | 0.47 | 76 | 1013.6 |
| 20260904185004 | 81 | 278 | 3.0 | 8.0 | 0.00 | 0.47 | 0.47 | 75 | 1013.6 |
| 20260904184526 | 81 | 134 | 2.0 | 8.0 | 0.00 | 0.47 | 0.47 | 74 | 1013.6 |
| 20260904184015 | 82 | 135 | 3.0 | 11.0 | 0.00 | 0.47 | 0.47 | 73 | 1013.8 |
| 20260904183508 | 81 | 128 | 2.0 | 11.0 | 0.00 | 0.47 | 0.47 | 76 | 1013.8 |
| 20260904183027 | 80 | 242 | 4.0 | 11.0 | 0.00 | 0.47 | 0.47 | 76 | 1013.8 |
| 20260904182520 | 81 | 250 | 3.0 | 9.0 | 0.00 | 0.47 | 0.47 | 76 | 1013.7 |
| 20260904182012 | 78 | 196 | 4.0 | 10.0 | 0.00 | 0.47 | 0.47 | 79 | 1013.9 |
| 20260904181528 | 77 | 164 | 3.0 | 12.0 | 0.00 | 0.47 | 0.47 | 82 | 1014.2 |
| 20260904181017 | 76 | 212 | 2.0 | 14.0 | 0.00 | 0.47 | 0.47 | 84 | 1014.1 |
| 20260904180508 | 75 | 112 | 6.0 | 14.0 | 0.00 | 0.48 | 0.47 | 84 | 1014.0 |
| 20260904180029 | 75 | 213 | 4.0 | 12.0 | 0.00 | 0.48 | 0.47 | 85 | 1014.1 |
| 20260904175516 | 74 | 259 | 6.0 | 12.0 | 0.00 | 0.48 | 0.47 | 85 | 1014.1 |
| 20260904175010 | 74 | 210 | 6.0 | 12.0 | 0.00 | 0.48 | 0.47 | 86 | 1014.2 |
| 20260904174556 | 73 | 135 | 5.0 | 14.0 | 0.00 | 0.48 | 0.47 | 86 | 1014.1 |
| 20260904174017 | 73 | 173 | 5.0 | 14.0 | 0.00 | 0.48 | 0.47 | 87 | 1014.1 |
| 20260904173511 | 73 | 228 | 3.0 | 11.0 | 0.00 | 0.48 | 0.47 | 87 | 1014.2 |
| 20260904173029 | 73 | 238 | 4.0 | 12.0 | 0.00 | 0.48 | 0.47 | 88 | 1014.1 |
| 20260904172521 | 72 | 250 | 4.0 | 12.0 | 0.00 | 0.48 | 0.47 | 88 | 1014.2 |
| 20260904172011 | 72 | 214 | 5.0 | 12.0 | 0.00 | 0.50 | 0.47 | 88 | 1014.4 |
| 20260904171530 | 72 | 136 | 4.0 | 12.0 | 0.00 | 0.50 | 0.47 | 89 | 1014.3 |
| 20260904171019 | 72 | 222 | 4.0 | 12.0 | 0.00 | 0.50 | 0.47 | 89 | 1014.4 |
| 20260904170514 | 72 | 223 | 4.0 | 14.0 | 0.00 | 0.50 | 0.47 | 89 | 1014.4 |
| 20260904170031 | 71 | 280 | 4.0 | 14.0 | 0.00 | 0.50 | 0.47 | 90 | 1014.3 |
| 20260904165519 | 71 | 218 | 5.0 | 10.0 | 0.00 | 0.50 | 0.47 | 90 | 1014.3 |
| 20260904165014 | 70 | 165 | 3.0 | 8.0 | 0.00 | 0.50 | 0.47 | 91 | 1014.5 |
| 20260904164507 | 70 | 225 | 2.0 | 8.0 | 0.00 | 0.50 | 0.47 | 90 | 1014.5 |
| 20260904164007 | 70 | 178 | 1.0 | 15.0 | 0.00 | 0.51 | 0.47 | 91 | 1014.7 |
| 20260904163513 | 70 | 225 | 2.0 | 15.0 | 0.00 | 0.51 | 0.47 | 91 | 1015.0 |
| 20260904163008 | 69 | 238 | 2.0 | 9.0 | 0.00 | 0.51 | 0.47 | 91 | 1015.4 |
| 20260904162508 | 69 | 174 | 3.0 | 9.0 | 0.03 | 0.51 | 0.47 | 91 | 1015.5 |
| 20260904162015 | 69 | 227 | 3.0 | 13.0 | 0.17 | 0.51 | 0.47 | 91 | 1015.1 |
| 20260904161509 | 69 | 263 | 3.0 | 13.0 | 0.35 | 0.51 | 0.47 | 92 | 1015.1 |
| 20260904161011 | 69 | 291 | 3.0 | 9.0 | 0.40 | 0.52 | 0.47 | 92 | 1015.3 |
| 20260904160506 | 69 | 200 | 1.0 | 7.0 | 0.40 | 0.52 | 0.47 | 92 | 1015.1 |
| 20260904160010 | 69 | 180 | 3.0 | 7.0 | 0.40 | 0.54 | 0.47 | 92 | 1015.2 |
| 20260904155507 | 69 | 243 | 2.0 | 11.0 | 0.40 | 0.56 | 0.47 | 91 | 1015.4 |
| 20260904155002 | 69 | 118 | 4.0 | 11.0 | 0.40 | 0.58 | 0.47 | 91 | 1015.6 |
| 20260904154512 | 69 | 95 | 3.0 | 10.0 | 0.40 | 0.60 | 0.47 | 91 | 1015.6 |
| 20260904154010 | 69 | 154 | 3.0 | 11.0 | 0.40 | 0.61 | 0.47 | 91 | 1015.8 |
| 20260904153504 | 69 | 150 | 5.0 | 11.0 | 0.40 | 0.62 | 0.47 | 91 | 1016.0 |
| 20260904153018 | 69 | 254 | 4.0 | 11.0 | 0.40 | 0.64 | 0.47 | 91 | 1016.2 |
| 20260904152519 | 70 | 236 | 2.0 | 12.0 | 0.37 | 0.63 | 0.44 | 90 | 1016.3 |
| 20260904152005 | 70 | 138 | 4.0 | 13.0 | 0.23 | 0.51 | 0.30 | 89 | 1016.5 |
| 20260904151515 | 70 | 82 | 4.0 | 13.0 | 0.05 | 0.33 | 0.12 | 89 | 1017.4 |
| 20260904151013 | 70 | 325 | 5.0 | 9.0 | 0.02 | 0.29 | 0.07 | 89 | 1017.6 |
| 20260904150504 | 70 | 206 | 1.0 | 4.0 | 0.05 | 0.29 | 0.07 | 90 | 1016.7 |
| 20260904150018 | 70 | 182 | 0.0 | 6.0 | 0.05 | 0.37 | 0.07 | 90 | 1016.6 |
| 20260904145512 | 70 | 98 | 3.0 | 7.0 | 0.05 | 0.41 | 0.07 | 90 | 1016.7 |
| 20260904145002 | 69 | 80 | 3.0 | 7.0 | 0.05 | 0.47 | 0.07 | 90 | 1016.7 |
| 20260904144518 | 69 | 28 | 3.0 | 5.0 | 0.05 | 0.50 | 0.07 | 90 | 1016.8 |
| 20260904144015 | 69 | 130 | 0.0 | 9.0 | 0.05 | 0.50 | 0.07 | 90 | 1016.7 |
| 20260904143504 | 69 | 156 | 4.0 | 11.0 | 0.05 | 0.50 | 0.07 | 89 | 1016.7 |
| 20260904143024 | 69 | 59 | 6.0 | 11.0 | 0.05 | 0.50 | 0.07 | 89 | 1016.7 |
| 20260904142515 | 70 | 117 | 4.0 | 9.0 | 0.05 | 0.50 | 0.07 | 89 | 1016.6 |
| 20260904142004 | 70 | 96 | 4.0 | 13.0 | 0.05 | 0.50 | 0.07 | 88 | 1016.7 |
| 20260904141520 | 70 | 119 | 5.0 | 13.0 | 0.05 | 0.50 | 0.07 | 87 | 1016.8 |
| 20260904141015 | 70 | 90 | 8.0 | 13.0 | 0.03 | 0.48 | 0.05 | 86 | 1016.7 |
| 20260904140505 | 70 | 90 | 7.0 | 14.0 | 0.00 | 0.45 | 0.02 | 85 | 1016.9 |
| 20260904140031 | 70 | 88 | 8.0 | 14.0 | 0.00 | 0.45 | 0.02 | 85 | 1017.0 |
| 20260904135514 | 70 | 60 | 5.0 | 15.0 | 0.00 | 0.45 | 0.02 | 85 | 1017.1 |
| 20260904135008 | 70 | 312 | 7.0 | 15.0 | 0.00 | 0.45 | 0.02 | 85 | 1016.7 |
| 20260904134526 | 70 | 352 | 2.0 | 9.0 | 0.00 | 0.45 | 0.02 | 85 | 1017.8 |
| 20260904134014 | 70 | 313 | 3.0 | 10.0 | 0.00 | 0.45 | 0.02 | 85 | 1017.2 |
| 20260904133505 | 70 | 297 | 2.0 | 18.0 | 0.00 | 0.45 | 0.02 | 86 | 1017.6 |
| 20260904133027 | 69 | 73 | 10.0 | 18.0 | 0.00 | 0.45 | 0.02 | 87 | 1017.5 |
| 20260904132518 | 69 | 59 | 9.0 | 19.0 | 0.00 | 0.45 | 0.02 | 88 | 1017.4 |
| 20260904132010 | 69 | 241 | 7.0 | 19.0 | 0.00 | 0.45 | 0.02 | 88 | 1017.7 |
| 20260904131531 | 69 | 352 | 9.0 | 17.0 | 0.00 | 0.45 | 0.02 | 89 | 1017.8 |
| 20260904131003 | 69 | 13 | 4.0 | 13.0 | 0.00 | 0.45 | 0.02 | 89 | 1016.7 |
| 20260904130511 | 69 | 58 | 9.0 | 13.0 | 0.00 | 0.45 | 0.02 | 89 | 1015.8 |
| 20260904130031 | 69 | 50 | 6.0 | 10.0 | 0.00 | 0.45 | 0.02 | 89 | 1015.2 |
| 20260904125504 | 69 | 129 | 5.0 | 11.0 | 0.00 | 0.45 | 0.02 | 89 | 1015.3 |
| 20260904125010 | 69 | 79 | 3.0 | 14.0 | 0.00 | 0.45 | 0.02 | 89 | 1015.7 |
| 20260904124526 | 69 | 90 | 6.0 | 14.0 | 0.00 | 0.45 | 0.02 | 88 | 1015.7 |
| 20260904124005 | 69 | 108 | 7.0 | 12.0 | 0.00 | 0.45 | 0.02 | 88 | 1015.8 |
| 20260904123511 | 69 | 73 | 6.0 | 12.0 | 0.00 | 0.45 | 0.02 | 89 | 1015.9 |
| 20260904123033 | 69 | 61 | 5.0 | 12.0 | 0.00 | 0.45 | 0.02 | 89 | 1015.7 |
| 20260904122507 | 69 | 78 | 6.0 | 14.0 | 0.00 | 0.45 | 0.02 | 90 | 1015.5 |
| 20260904122011 | 69 | 101 | 8.0 | 17.0 | 0.00 | 0.45 | 0.02 | 90 | 1015.5 |
| 20260904121533 | 69 | 88 | 7.0 | 18.0 | 0.00 | 0.45 | 0.02 | 90 | 1015.5 |
| 20260904121005 | 69 | 51 | 11.0 | 19.0 | 0.00 | 0.45 | 0.02 | 90 | 1015.5 |
| 20260904120510 | 69 | 60 | 9.0 | 19.0 | 0.00 | 0.45 | 0.02 | 91 | 1015.5 |
| 20260904120030 | 69 | 47 | 10.0 | 16.0 | 0.00 | 0.45 | 0.02 | 91 | 1015.2 |
| 20260904115508 | 69 | 48 | 10.0 | 16.0 | 0.00 | 0.45 | 0.02 | 91 | 1014.9 |
| 20260904115015 | 69 | 67 | 8.0 | 12.0 | 0.00 | 0.45 | 0.02 | 91 | 1015.0 |
| 20260904114534 | 69 | 115 | 3.0 | 9.0 | 0.00 | 0.45 | 0.02 | 91 | 1014.9 |
| 20260904114012 | 69 | 59 | 5.0 | 11.0 | 0.00 | 0.45 | 0.02 | 91 | 1014.7 |
| 20260904113514 | 69 | 15 | 5.0 | 11.0 | 0.00 | 0.45 | 0.02 | 91 | 1014.5 |
| 20260904113044 | 69 | 126 | 4.0 | 8.0 | 0.00 | 0.45 | 0.02 | 91 | 1014.3 |
| 20260904112509 | 69 | 68 | 5.0 | 9.0 | 0.00 | 0.45 | 0.02 | 91 | 1014.3 |
| 20260904112013 | 69 | 53 | 3.0 | 9.0 | 0.00 | 0.45 | 0.02 | 91 | 1014.2 |
| 20260904111532 | 69 | 117 | 3.0 | 10.0 | 0.00 | 0.45 | 0.02 | 91 | 1014.3 |
| 20260904111011 | 69 | 15 | 4.0 | 10.0 | 0.00 | 0.45 | 0.02 | 90 | 1014.1 |
| 20260904110515 | 70 | 52 | 5.0 | 9.0 | 0.00 | 0.45 | 0.02 | 90 | 1014.2 |
| 20260904110039 | 70 | 84 | 5.0 | 9.0 | 0.00 | 0.45 | 0.02 | 90 | 1014.1 |
| 20260904105510 | 70 | 77 | 4.0 | 8.0 | 0.00 | 0.45 | 0.02 | 90 | 1014.1 |
| 20260904105015 | 70 | 63 | 3.0 | 7.0 | 0.00 | 0.45 | 0.02 | 90 | 1013.9 |
| 20260904104513 | 70 | 149 | 3.0 | 9.0 | 0.00 | 0.45 | 0.02 | 90 | 1013.8 |
| 20260904104010 | 70 | 94 | 2.0 | 9.0 | 0.00 | 0.45 | 0.02 | 89 | 1013.8 |
| 20260904103503 | 71 | 59 | 3.0 | 10.0 | 0.00 | 0.45 | 0.02 | 89 | 1013.9 |
| 20260904103017 | 71 | 69 | 4.0 | 10.0 | 0.00 | 0.45 | 0.02 | 90 | 1013.8 |
| 20260904102504 | 71 | 61 | 5.0 | 8.0 | 0.00 | 0.45 | 0.02 | 90 | 1014.0 |
| 20260904102004 | 71 | 27 | 4.0 | 9.0 | 0.00 | 0.45 | 0.02 | 90 | 1013.8 |
| 20260904101522 | 71 | 69 | 4.0 | 9.0 | 0.00 | 0.45 | 0.02 | 90 | 1014.1 |
| 20260904101002 | 71 | 46 | 2.0 | 9.0 | 0.00 | 0.45 | 0.02 | 90 | 1014.3 |
| 20260904100506 | 71 | 36 | 3.0 | 11.0 | 0.00 | 0.45 | 0.02 | 90 | 1014.3 |
| 20260904100017 | 71 | 66 | 4.0 | 11.0 | 0.00 | 0.45 | 0.02 | 90 | 1014.2 |
| 20260904095504 | 72 | 54 | 5.0 | 11.0 | 0.00 | 0.45 | 0.02 | 90 | 1014.0 |
| 20260904095002 | 72 | 68 | 5.0 | 11.0 | 0.00 | 0.45 | 0.02 | 91 | 1014.0 |
| 20260904094521 | 72 | 53 | 3.0 | 7.0 | 0.00 | 0.45 | 0.02 | 91 | 1014.0 |
| 20260904094003 | 72 | 86 | 1.0 | 7.0 | 0.01 | 0.45 | 0.02 | 91 | 1014.0 |
| 20260904093504 | 72 | 190 | 1.0 | 13.0 | 0.01 | 0.45 | 0.02 | 91 | 1013.7 |
| 20260904093023 | 72 | 162 | 7.0 | 16.0 | 0.01 | 0.45 | 0.02 | 91 | 1013.6 |
| 20260904092504 | 72 | 63 | 10.0 | 16.0 | 0.01 | 0.45 | 0.02 | 91 | 1013.8 |
| 20260904092005 | 72 | 128 | 5.0 | 10.0 | 0.01 | 0.45 | 0.02 | 92 | 1013.9 |
| 20260904091525 | 72 | 61 | 4.0 | 5.0 | 0.01 | 0.45 | 0.02 | 92 | 1013.7 |
| 20260904091003 | 72 | 64 | 1.0 | 2.0 | 0.01 | 0.45 | 0.02 | 92 | 1013.4 |
| 20260904090505 | 72 | 100 | 0.0 | 2.0 | 0.01 | 0.45 | 0.02 | 92 | 1013.2 |
| 20260904090025 | 72 | 87 | 0.0 | 2.0 | 0.01 | 0.45 | 0.02 | 92 | 1013.2 |